• In Austria
  • List of Countries
  • For 7 days
  • Water Temperature
  • Satellite Maps
  • Weather Map
  • News
  • Weather Widgets
  • user-avatar
    Login

    Hourly Weather Acapulco

    Today, 24 June, Sunday

    Time Temperature Precipitation Wind Pressure Humidity
    00:00 +27°C° 0.1 mm 1 mps 756 mmHg 90%
    01:00 +26°C° 0.1 mm 2 mps 755 mmHg 90%
    02:00 +26°C° 0.1 mm 2 mps 755 mmHg 89%
    03:00 +26°C° 0.1 mm 2 mps 755 mmHg 88%
    04:00 +26°C° 0.1 mm 2 mps 755 mmHg 87%
    05:00 +26°C° 0.1 mm 2 mps 755 mmHg 87%
    06:00 +28°C° 0 mm 2 mps 755 mmHg 82%
    07:00 +29°C° 0 mm 1 mps 755 mmHg 77%
    08:00 +31°C° 0 mm 1 mps 755 mmHg 72%
    09:00 +32°C° 0.1 mm 1 mps 755 mmHg 68%
    10:00 +33°C° 0.1 mm 1 mps 755 mmHg 64%
    11:00 +35°C° 0.1 mm 2 mps 755 mmHg 60%
    12:00 +35°C° 0.2 mm 2 mps 755 mmHg 62%
    13:00 +35°C° 0.2 mm 2 mps 754 mmHg 63%
    14:00 +35°C° 0.2 mm 2 mps 754 mmHg 65%
    15:00 +34°C° 0.2 mm 2 mps 753 mmHg 69%
    16:00 +32°C° 0.2 mm 2 mps 753 mmHg 74%
    17:00 +31°C° 0.2 mm 2 mps 753 mmHg 78%
    18:00 +30°C° 0.2 mm 1 mps 754 mmHg 82%
    19:00 +29°C° 0.2 mm 1 mps 754 mmHg 85%
    20:00 +26°C° 0.2 mm 0 mps 755 mmHg 89%
    21:00 +26°C° 0.2 mm 0 mps 755 mmHg 89%
    22:00 +28°C° 0.2 mm 1 mps 755 mmHg 90%
    23:00 +28°C° 0.2 mm 1 mps 756 mmHg 90%

    Tomorrow, 25 June, Monday

    Time Temperature Precipitation Wind Pressure Humidity
    00:00 +27°C° 0.1 mm 1 mps 755 mmHg 90%
    01:00 +27°C° 0.1 mm 1 mps 755 mmHg 90%
    02:00 +27°C° 0.1 mm 2 mps 754 mmHg 90%
    03:00 +27°C° 0.2 mm 2 mps 754 mmHg 89%
    04:00 +27°C° 0.2 mm 2 mps 754 mmHg 88%
    05:00 +27°C° 0.2 mm 2 mps 755 mmHg 86%
    06:00 +28°C° 0.1 mm 2 mps 755 mmHg 80%
    07:00 +30°C° 0.1 mm 2 mps 755 mmHg 73%
    08:00 +32°C° 0.1 mm 2 mps 756 mmHg 67%
    09:00 +33°C° 0.1 mm 1 mps 755 mmHg 63%
    10:00 +35°C° 0.1 mm 1 mps 755 mmHg 59%
    11:00 +36°C° 0.1 mm 1 mps 755 mmHg 55%
    12:00 +36°C° 0.1 mm 2 mps 755 mmHg 56%
    13:00 +36°C° 0.1 mm 2 mps 754 mmHg 58%
    14:00 +36°C° 0.1 mm 2 mps 753 mmHg 60%
    15:00 +35°C° 0.5 mm 2 mps 753 mmHg 66%
    16:00 +34°C° 0.5 mm 2 mps 753 mmHg 72%
    17:00 +32°C° 0.5 mm 2 mps 753 mmHg 78%
    18:00 +31°C° 0.1 mm 1 mps 753 mmHg 81%
    19:00 +30°C° 0.1 mm 1 mps 754 mmHg 85%
    20:00 +29°C° 0.1 mm 1 mps 755 mmHg 88%
    21:00 +28°C° 0 mm 1 mps 755 mmHg 87%
    22:00 +28°C° 0 mm 1 mps 755 mmHg 86%
    23:00 +28°C° 0 mm 1 mps 756 mmHg 85%

    Day after tomorrow, 26 June, Tuesday

    Time Temperature Precipitation Wind Pressure Humidity
    00:00 +27°C° 0.2 mm 1 mps 755 mmHg 83%
    01:00 +27°C° 0.2 mm 1 mps 755 mmHg 81%
    02:00 +27°C° 0.2 mm 1 mps 755 mmHg 79%
    03:00 +26°C° 0 mm 1 mps 755 mmHg 77%
    04:00 +26°C° 0 mm 2 mps 755 mmHg 75%
    05:00 +26°C° 0 mm 2 mps 755 mmHg 73%
    06:00 +28°C° 0 mm 1 mps 755 mmHg 68%
    07:00 +30°C° 0 mm 1 mps 756 mmHg 62%
    08:00 +32°C° 0 mm 1 mps 756 mmHg 56%
    09:00 +34°C° 0 mm 1 mps 756 mmHg 53%
    10:00 +35°C° 0 mm 1 mps 756 mmHg 49%
    11:00 +36°C° 0 mm 1 mps 755 mmHg 45%
    12:00 +36°C° 0 mm 1 mps 755 mmHg 48%
    13:00 +37°C° 0 mm 2 mps 754 mmHg 51%
    14:00 +36°C° 0 mm 2 mps 753 mmHg 53%
    15:00 +35°C° 0.1 mm 2 mps 753 mmHg 59%
    16:00 +34°C° 0.1 mm 2 mps 753 mmHg 65%
    17:00 +32°C° 0.1 mm 2 mps 753 mmHg 71%
    18:00 +31°C° 0.5 mm 1 mps 754 mmHg 76%
    19:00 +30°C° 0.5 mm 1 mps 754 mmHg 81%
    20:00 +28°C° 0.5 mm 1 mps 755 mmHg 87%
    21:00 +28°C° 0.6 mm 1 mps 755 mmHg 87%
    22:00 +28°C° 0.6 mm 1 mps 756 mmHg 86%
    23:00 +28°C° 0.6 mm 2 mps 756 mmHg 86%

    27 June, Wednesday

    Time Temperature Precipitation Wind Pressure Humidity
    00:00 +28°C° 0.4 mm 2 mps 756 mmHg 86%
    01:00 +28°C° 0.4 mm 2 mps 755 mmHg 86%
    02:00 +28°C° 0.4 mm 2 mps 755 mmHg 85%
    03:00 +27°C° 0.2 mm 2 mps 755 mmHg 85%
    04:00 +27°C° 0.2 mm 2 mps 755 mmHg 85%
    05:00 +27°C° 0.2 mm 2 mps 755 mmHg 84%
    06:00 +29°C° 0.1 mm 2 mps 756 mmHg 78%
    07:00 +30°C° 0.1 mm 2 mps 756 mmHg 72%
    08:00 +32°C° 0.1 mm 1 mps 756 mmHg 66%
    09:00 +33°C° 0.2 mm 1 mps 756 mmHg 62%
    10:00 +34°C° 0.2 mm 1 mps 756 mmHg 59%
    11:00 +36°C° 0.2 mm 2 mps 756 mmHg 55%
    12:00 +36°C° 0.3 mm 2 mps 755 mmHg 56%
    13:00 +36°C° 0.3 mm 2 mps 755 mmHg 57%
    14:00 +36°C° 0.3 mm 2 mps 754 mmHg 58%
    15:00 +35°C° 0.2 mm 2 mps 754 mmHg 63%
    16:00 +34°C° 0.2 mm 2 mps 754 mmHg 68%
    17:00 +32°C° 0.2 mm 2 mps 754 mmHg 72%
    18:00 +31°C° 0.3 mm 2 mps 755 mmHg 76%
    19:00 +30°C° 0.3 mm 1 mps 755 mmHg 80%
    20:00 +29°C° 0.3 mm 1 mps 756 mmHg 84%
    21:00 +28°C° 1 mm 1 mps 756 mmHg 86%
    22:00 +28°C° 1 mm 1 mps 756 mmHg 88%
    23:00 +28°C° 1 mm 1 mps 756 mmHg 89%

    28 June, Thursday

    Time Temperature Precipitation Wind Pressure Humidity
    00:00 +28°C° 0.6 mm 2 mps 756 mmHg 90%
    01:00 +27°C° 0.6 mm 2 mps 756 mmHg 90%
    02:00 +27°C° 0.6 mm 2 mps 755 mmHg 90%
    03:00 +27°C° 0.1 mm 2 mps 755 mmHg 89%
    04:00 +27°C° 0.1 mm 1 mps 755 mmHg 88%
    05:00 +26°C° 0.1 mm 1 mps 755 mmHg 87%
    06:00 +28°C° 0 mm 1 mps 755 mmHg 81%
    07:00 +30°C° 0 mm 1 mps 756 mmHg 76%
    08:00 +31°C° 0 mm 1 mps 756 mmHg 70%
    09:00 +33°C° 0.1 mm 1 mps 756 mmHg 67%
    10:00 +35°C° 0.1 mm 2 mps 755 mmHg 64%
    11:00 +36°C° 0.1 mm 2 mps 755 mmHg 60%
    12:00 +36°C° 0.2 mm 3 mps 754 mmHg 62%
    13:00 +36°C° 0.2 mm 3 mps 754 mmHg 63%
    14:00 +35°C° 0.2 mm 4 mps 753 mmHg 65%
    15:00 +35°C° 0.2 mm 3 mps 753 mmHg 69%
    16:00 +34°C° 0.2 mm 3 mps 753 mmHg 73%
    17:00 +33°C° 0.2 mm 3 mps 753 mmHg 77%
    18:00 +31°C° 0.4 mm 3 mps 753 mmHg 81%
    19:00 +30°C° 0.4 mm 3 mps 754 mmHg 85%
    20:00 +29°C° 0.4 mm 3 mps 755 mmHg 89%
    21:00 +29°C° 1.1 mm 2 mps 755 mmHg 90%
    22:00 +28°C° 1.1 mm 2 mps 755 mmHg 91%
    23:00 +28°C° 1.1 mm 2 mps 755 mmHg 91%

    29 June, Friday

    Time Temperature Precipitation Wind Pressure Humidity
    00:00 +28°C° 0.6 mm 2 mps 755 mmHg 91%
    01:00 +28°C° 0.6 mm 2 mps 755 mmHg 91%
    02:00 +27°C° 0.6 mm 3 mps 754 mmHg 91%
    03:00 +27°C° 1.2 mm 2 mps 755 mmHg 90%
    04:00 +27°C° 1.2 mm 2 mps 755 mmHg 90%
    05:00 +27°C° 1.2 mm 2 mps 755 mmHg 89%
    06:00 +28°C° 0.5 mm 1 mps 755 mmHg 86%
    07:00 +29°C° 0.5 mm 1 mps 755 mmHg 83%
    08:00 +30°C° 0.5 mm 1 mps 756 mmHg 80%
    09:00 +31°C° 0.7 mm 1 mps 755 mmHg 77%
    10:00 +32°C° 0.7 mm 2 mps 755 mmHg 74%
    11:00 +34°C° 0.7 mm 2 mps 755 mmHg 71%
    12:00 +34°C° 0.8 mm 2 mps 754 mmHg 73%
    13:00 +34°C° 0.8 mm 2 mps 753 mmHg 74%
    14:00 +32°C° 0.8 mm 2 mps 753 mmHg 75%
    15:00 +32°C° 1.1 mm 2 mps 753 mmHg 78%
    16:00 +31°C° 1.1 mm 2 mps 753 mmHg 80%
    17:00 +31°C° 1.1 mm 1 mps 753 mmHg 83%
    18:00 +30°C° 0.5 mm 1 mps 753 mmHg 84%
    19:00 +29°C° 0.5 mm 1 mps 754 mmHg 86%
    20:00 +28°C° 0.5 mm 1 mps 754 mmHg 87%
    21:00 +28°C° 0.4 mm 2 mps 754 mmHg 86%
    22:00 +28°C° 0.4 mm 2 mps 754 mmHg 85%
    23:00 +28°C° 0.4 mm 3 mps 755 mmHg 84%
    Show more